When you browse on this site, cookies collect data to enhance your experience and personalize the content and advertising you see.
Visit our Privacy Policy to learn more. By continuing to use the site, you agree to this use of cookies and data.
  • Em Portugal
  • Lista de países
  • Para 7 dias
  • Temperatura da água
  • Mapas de satélite
  • Mapa do tempo
  • Widgets de tempo
  • user-avatar
    Iniciar Sessão

    Previsão horária em Barlewiczki

    Hoje, 19 Fevereiro, Terça-feira

    Tempo Temperatura Precipitação Vento Pressão Humidade
    00:00 +2°C° 0 mm 3 m/s 758 mmHg 85%
    01:00 +2°C° 0 mm 3 m/s 757 mmHg 86%
    02:00 +2°C° 0 mm 3 m/s 757 mmHg 86%
    03:00 +2°C° 0 mm 3 m/s 756 mmHg 85%
    04:00 +2°C° 0 mm 3 m/s 755 mmHg 85%
    05:00 0°C° 0 mm 4 m/s 755 mmHg 85%
    06:00 0°C° 0 mm 4 m/s 755 mmHg 85%
    07:00 0°C° 0 mm 4 m/s 754 mmHg 85%
    08:00 +2°C° 0 mm 5 m/s 754 mmHg 80%
    09:00 +3°C° 0 mm 5 m/s 754 mmHg 75%
    10:00 +4°C° 0 mm 6 m/s 754 mmHg 69%
    11:00 +5°C° 0 mm 6 m/s 753 mmHg 68%
    12:00 +7°C° 0 mm 6 m/s 753 mmHg 67%
    13:00 +8°C° 0 mm 6 m/s 753 mmHg 65%
    14:00 +8°C° 0.1 mm 6 m/s 753 mmHg 69%
    15:00 +8°C° 0.1 mm 5 m/s 753 mmHg 73%
    16:00 +7°C° 0.1 mm 5 m/s 753 mmHg 77%
    17:00 +7°C° 0.1 mm 4 m/s 753 mmHg 79%
    18:00 +6°C° 0.1 mm 4 m/s 753 mmHg 80%
    19:00 +5°C° 0.1 mm 4 m/s 753 mmHg 81%
    20:00 +5°C° 0 mm 4 m/s 753 mmHg 81%
    21:00 +5°C° 0 mm 4 m/s 753 mmHg 82%
    22:00 +3°C° 0 mm 5 m/s 753 mmHg 82%
    23:00 +3°C° 0.1 mm 5 m/s 753 mmHg 82%

    Amanhã, 20 Fevereiro, Quarta-feira

    Tempo Temperatura Precipitação Vento Pressão Humidade
    00:00 +3°C° 0.1 mm 5 m/s 753 mmHg 82%
    01:00 +3°C° 0.1 mm 5 m/s 753 mmHg 82%
    02:00 +3°C° 0.1 mm 5 m/s 753 mmHg 81%
    03:00 +3°C° 0.1 mm 5 m/s 753 mmHg 80%
    04:00 +3°C° 0.1 mm 5 m/s 753 mmHg 80%
    05:00 +3°C° 0.1 mm 5 m/s 753 mmHg 79%
    06:00 +3°C° 0.1 mm 5 m/s 754 mmHg 79%
    07:00 +2°C° 0.1 mm 5 m/s 754 mmHg 78%
    08:00 +3°C° 0 mm 6 m/s 754 mmHg 75%
    09:00 +3°C° 0 mm 7 m/s 755 mmHg 72%
    10:00 +2°C° 0 mm 8 m/s 755 mmHg 69%
    11:00 +4°C° 0 mm 8 m/s 756 mmHg 69%
    12:00 +4°C° 0 mm 8 m/s 756 mmHg 68%
    13:00 +4°C° 0 mm 8 m/s 757 mmHg 67%
    14:00 +4°C° 0 mm 7 m/s 757 mmHg 68%
    15:00 +4°C° 0 mm 7 m/s 757 mmHg 70%
    16:00 +4°C° 0 mm 6 m/s 758 mmHg 72%
    17:00 +3°C° 0 mm 5 m/s 758 mmHg 75%
    18:00 +3°C° 0 mm 5 m/s 759 mmHg 77%
    19:00 +3°C° 0 mm 4 m/s 759 mmHg 80%
    20:00 +3°C° 0 mm 4 m/s 760 mmHg 82%
    21:00 +3°C° 0 mm 3 m/s 760 mmHg 84%
    22:00 +4°C° 0 mm 2 m/s 760 mmHg 86%
    23:00 +3°C° 0 mm 2 m/s 760 mmHg 88%

    Depois de amanhã, 21 Fevereiro, Quinta-feira

    Tempo Temperatura Precipitação Vento Pressão Humidade
    00:00 +3°C° 0 mm 2 m/s 760 mmHg 90%
    01:00 +3°C° 0 mm 2 m/s 760 mmHg 92%
    02:00 +3°C° 0.1 mm 2 m/s 760 mmHg 93%
    03:00 +3°C° 0.1 mm 2 m/s 760 mmHg 94%
    04:00 +3°C° 0.1 mm 2 m/s 760 mmHg 95%
    05:00 +3°C° 0.5 mm 2 m/s 760 mmHg 96%
    06:00 +3°C° 0.5 mm 2 m/s 760 mmHg 96%
    07:00 +4°C° 0.5 mm 2 m/s 759 mmHg 97%
    08:00 +4°C° 0.5 mm 2 m/s 759 mmHg 96%
    09:00 +4°C° 0.5 mm 3 m/s 759 mmHg 94%
    10:00 +4°C° 0.5 mm 3 m/s 759 mmHg 93%
    11:00 +4°C° 0.6 mm 3 m/s 759 mmHg 93%
    12:00 +5°C° 0.6 mm 3 m/s 759 mmHg 92%
    13:00 +6°C° 0.6 mm 2 m/s 759 mmHg 92%
    14:00 +6°C° 0.1 mm 2 m/s 759 mmHg 91%
    15:00 +6°C° 0.1 mm 2 m/s 759 mmHg 91%
    16:00 +6°C° 0.1 mm 2 m/s 758 mmHg 90%
    17:00 +6°C° 0.4 mm 2 m/s 759 mmHg 92%
    18:00 +5°C° 0.4 mm 2 m/s 759 mmHg 93%
    19:00 +5°C° 0.4 mm 2 m/s 759 mmHg 95%
    20:00 +3°C° 1.1 mm 3 m/s 760 mmHg 93%
    21:00 0°C° 1.1 mm 5 m/s 760 mmHg 90%
    22:00 -2°C° 1.1 mm 6 m/s 761 mmHg 88%
    23:00 -3°C° 0 mm 6 m/s 762 mmHg 86%

    22 Fevereiro, Sexta-feira

    Tempo Temperatura Precipitação Vento Pressão Humidade
    00:00 -3°C° 0 mm 6 m/s 763 mmHg 84%
    01:00 -4°C° 0 mm 5 m/s 764 mmHg 82%
    02:00 -4°C° 0 mm 5 m/s 765 mmHg 79%
    03:00 -5°C° 0 mm 5 m/s 766 mmHg 76%
    04:00 -5°C° 0 mm 5 m/s 767 mmHg 72%
    05:00 -5°C° 0 mm 5 m/s 768 mmHg 71%
    06:00 -5°C° 0 mm 5 m/s 769 mmHg 69%
    07:00 -5°C° 0 mm 4 m/s 770 mmHg 67%
    08:00 -4°C° 0 mm 4 m/s 771 mmHg 63%
    09:00 -4°C° 0 mm 4 m/s 772 mmHg 59%
    10:00 -3°C° 0 mm 4 m/s 773 mmHg 55%
    11:00 -3°C° 0 mm 4 m/s 773 mmHg 52%
    12:00 -3°C° 0 mm 4 m/s 773 mmHg 49%
    13:00 -1°C° 0 mm 3 m/s 774 mmHg 47%
    14:00 -1°C° 0 mm 3 m/s 774 mmHg 48%
    15:00 -2°C° 0 mm 3 m/s 774 mmHg 50%
    16:00 -2°C° 0 mm 3 m/s 775 mmHg 52%
    17:00 -2°C° 0 mm 3 m/s 775 mmHg 56%
    18:00 -3°C° 0 mm 2 m/s 775 mmHg 60%
    19:00 -4°C° 0 mm 2 m/s 776 mmHg 64%
    20:00 -2°C° 0 mm 1 m/s 776 mmHg 63%
    21:00 -2°C° 0 mm 1 m/s 776 mmHg 63%
    22:00 -2°C° 0 mm 1 m/s 776 mmHg 62%
    23:00 -2°C° 0 mm 1 m/s 776 mmHg 62%

    23 Fevereiro, Sábado

    Tempo Temperatura Precipitação Vento Pressão Humidade
    00:00 -2°C° 0 mm 1 m/s 776 mmHg 62%
    01:00 -3°C° 0 mm 0 m/s 776 mmHg 62%
    02:00 -2°C° 0 mm 1 m/s 776 mmHg 63%
    03:00 -1°C° 0 mm 1 m/s 776 mmHg 64%
    04:00 -1°C° 0 mm 1 m/s 776 mmHg 64%
    05:00 -1°C° 0 mm 1 m/s 775 mmHg 65%
    06:00 -1°C° 0 mm 1 m/s 775 mmHg 66%
    07:00 -1°C° 0 mm 1 m/s 775 mmHg 67%
    08:00 0°C° 0 mm 1 m/s 775 mmHg 63%
    09:00 0°C° 0 mm 1 m/s 775 mmHg 58%
    10:00 +1°C° 0 mm 1 m/s 775 mmHg 54%
    11:00 +1°C° 0 mm 2 m/s 775 mmHg 51%
    12:00 +1°C° 0 mm 2 m/s 775 mmHg 48%
    13:00 +2°C° 0 mm 2 m/s 774 mmHg 45%
    14:00 +2°C° 0 mm 2 m/s 774 mmHg 47%
    15:00 +2°C° 0 mm 2 m/s 773 mmHg 49%
    16:00 +2°C° 0 mm 1 m/s 773 mmHg 51%
    17:00 +2°C° 0 mm 1 m/s 773 mmHg 54%
    18:00 +2°C° 0 mm 1 m/s 773 mmHg 58%
    19:00 +2°C° 0 mm 1 m/s 773 mmHg 61%
    20:00 +2°C° 0 mm 1 m/s 773 mmHg 64%
    21:00 +2°C° 0 mm 1 m/s 773 mmHg 67%
    22:00 +1°C° 0 mm 1 m/s 773 mmHg 70%
    23:00 +1°C° 0 mm 1 m/s 773 mmHg 72%

    24 Fevereiro, Domingo

    Tempo Temperatura Precipitação Vento Pressão Humidade
    00:00 +1°C° 0 mm 1 m/s 773 mmHg 74%
    01:00 +1°C° 0 mm 1 m/s 773 mmHg 76%
    02:00 +1°C° 0 mm 1 m/s 773 mmHg 77%
    03:00 +1°C° 0 mm 1 m/s 773 mmHg 79%
    04:00 +1°C° 0 mm 1 m/s 773 mmHg 80%
    05:00 +1°C° 0 mm 1 m/s 773 mmHg 81%
    06:00 +1°C° 0 mm 1 m/s 773 mmHg 82%
    07:00 +1°C° 0 mm 1 m/s 773 mmHg 84%
    08:00 +1°C° 0 mm 2 m/s 774 mmHg 81%
    09:00 +2°C° 0 mm 2 m/s 774 mmHg 78%
    10:00 +3°C° 0 mm 2 m/s 774 mmHg 76%
    11:00 +3°C° 0 mm 2 m/s 774 mmHg 74%
    12:00 +4°C° 0 mm 2 m/s 775 mmHg 72%
    13:00 +5°C° 0 mm 2 m/s 775 mmHg 71%
    14:00 +5°C° 0 mm 2 m/s 774 mmHg 74%
    15:00 +5°C° 0 mm 2 m/s 774 mmHg 76%
    16:00 +5°C° 0 mm 2 m/s 774 mmHg 79%
    17:00 +4°C° 0 mm 2 m/s 773 mmHg 82%
    18:00 +3°C° 0 mm 2 m/s 773 mmHg 86%
    19:00 +2°C° 0 mm 2 m/s 773 mmHg 89%
    20:00 +2°C° 0 mm 2 m/s 773 mmHg 90%
    21:00 +1°C° 0 mm 3 m/s 773 mmHg 92%
    22:00 +1°C° 0 mm 3 m/s 773 mmHg 93%
    23:00 +1°C° 0 mm 3 m/s 773 mmHg 93%
    Mostrar mais